• In Lithuania
  • List of Countries
  • For 7 days
  • Water Temperature
  • Satellite Maps
  • Weather Map
  • Weather Widgets
  • user-avatar
    Login

    Hourly Weather Canberra

    Today, 21 October, Saturday

    Time Temperature Precipitation Wind Pressure Humidity
    00:00 +7°C° 0 mm 2 mps 714 mmHg 92%
    01:00 +5°C° 0 mm 2 mps 714 mmHg 92%
    02:00 +5°C° 0 mm 2 mps 713 mmHg 91%
    03:00 +4°C° 0 mm 2 mps 713 mmHg 90%
    04:00 +3°C° 0 mm 2 mps 713 mmHg 89%
    05:00 +6°C° 0 mm 1 mps 713 mmHg 83%
    06:00 +7°C° 0 mm 1 mps 713 mmHg 77%
    07:00 +9°C° 0 mm 1 mps 713 mmHg 71%
    08:00 +12°C° 0 mm 1 mps 713 mmHg 59%
    09:00 +15°C° 0 mm 1 mps 713 mmHg 48%
    10:00 +19°C° 0 mm 1 mps 713 mmHg 36%
    11:00 +20°C° 0 mm 1 mps 713 mmHg 34%
    12:00 +22°C° 0 mm 1 mps 712 mmHg 33%
    13:00 +23°C° 0 mm 1 mps 712 mmHg 31%
    14:00 +21°C° 0 mm 2 mps 711 mmHg 34%
    15:00 +21°C° 0 mm 2 mps 710 mmHg 38%
    16:00 +19°C° 0 mm 2 mps 710 mmHg 44%
    17:00 +16°C° 0 mm 2 mps 710 mmHg 55%
    18:00 +14°C° 0 mm 2 mps 710 mmHg 67%
    19:00 +12°C° 0 mm 1 mps 709 mmHg 78%
    20:00 +11°C° 0 mm 1 mps 709 mmHg 82%
    21:00 +10°C° 0 mm 1 mps 709 mmHg 87%
    22:00 +9°C° 0 mm 1 mps 709 mmHg 91%
    23:00 +9°C° 0 mm 1 mps 709 mmHg 91%

    Tomorrow, 22 October, Sunday

    Time Temperature Precipitation Wind Pressure Humidity
    00:00 +9°C° 0 mm 1 mps 709 mmHg 92%
    01:00 +9°C° 0 mm 1 mps 709 mmHg 92%
    02:00 +8°C° 0 mm 1 mps 708 mmHg 93%
    03:00 +7°C° 0 mm 0 mps 708 mmHg 94%
    04:00 +7°C° 0 mm 0 mps 708 mmHg 95%
    05:00 +8°C° 0 mm 0 mps 708 mmHg 91%
    06:00 +9°C° 0 mm 0 mps 708 mmHg 88%
    07:00 +10°C° 0 mm 0 mps 708 mmHg 84%
    08:00 +11°C° 0 mm 0 mps 708 mmHg 76%
    09:00 +13°C° 0 mm 0 mps 708 mmHg 67%
    10:00 +15°C° 0 mm 0 mps 708 mmHg 59%
    11:00 +16°C° 0.1 mm 1 mps 707 mmHg 58%
    12:00 +16°C° 0.1 mm 1 mps 707 mmHg 56%
    13:00 +18°C° 0.1 mm 1 mps 707 mmHg 55%
    14:00 +17°C° 0.3 mm 2 mps 707 mmHg 57%
    15:00 +16°C° 0.3 mm 2 mps 706 mmHg 60%
    16:00 +16°C° 0.3 mm 2 mps 706 mmHg 62%
    17:00 +15°C° 0.3 mm 2 mps 707 mmHg 70%
    18:00 +13°C° 0.3 mm 1 mps 707 mmHg 77%
    19:00 +11°C° 0.3 mm 1 mps 707 mmHg 85%
    20:00 +10°C° 0 mm 1 mps 707 mmHg 88%
    21:00 +9°C° 0 mm 1 mps 708 mmHg 91%
    22:00 +8°C° 0 mm 1 mps 708 mmHg 94%
    23:00 +8°C° 0 mm 1 mps 708 mmHg 94%

    Day after tomorrow, 23 October, Monday

    Time Temperature Precipitation Wind Pressure Humidity
    00:00 +7°C° 0 mm 1 mps 708 mmHg 94%
    01:00 +7°C° 0 mm 1 mps 708 mmHg 94%
    02:00 +7°C° 0 mm 1 mps 708 mmHg 94%
    03:00 +6°C° 0 mm 1 mps 708 mmHg 94%
    04:00 +6°C° 0 mm 1 mps 708 mmHg 93%
    05:00 +8°C° 0 mm 1 mps 709 mmHg 88%
    06:00 +9°C° 0 mm 1 mps 709 mmHg 82%
    07:00 +10°C° 0 mm 0 mps 710 mmHg 77%
    08:00 +14°C° 0 mm 1 mps 710 mmHg 65%
    09:00 +18°C° 0 mm 1 mps 710 mmHg 54%
    10:00 +20°C° 0 mm 1 mps 710 mmHg 43%
    11:00 +20°C° 0 mm 2 mps 710 mmHg 40%
    12:00 +21°C° 0 mm 2 mps 710 mmHg 38%
    13:00 +23°C° 0 mm 2 mps 710 mmHg 36%
    14:00 +22°C° 0 mm 3 mps 709 mmHg 38%
    15:00 +22°C° 0 mm 3 mps 709 mmHg 40%
    16:00 +21°C° 0 mm 3 mps 709 mmHg 43%
    17:00 +19°C° 0 mm 2 mps 709 mmHg 53%
    18:00 +16°C° 0 mm 2 mps 709 mmHg 63%
    19:00 +14°C° 0 mm 1 mps 709 mmHg 73%
    20:00 +13°C° 0 mm 1 mps 709 mmHg 78%
    21:00 +12°C° 0 mm 1 mps 710 mmHg 83%
    22:00 +11°C° 0 mm 1 mps 710 mmHg 88%
    23:00 +10°C° 0 mm 1 mps 710 mmHg 87%

    24 October, Tuesday

    Time Temperature Precipitation Wind Pressure Humidity
    00:00 +10°C° 0 mm 1 mps 709 mmHg 87%
    01:00 +10°C° 0 mm 1 mps 709 mmHg 87%
    02:00 +10°C° 0 mm 1 mps 709 mmHg 87%
    03:00 +10°C° 0 mm 1 mps 709 mmHg 86%
    04:00 +9°C° 0 mm 1 mps 709 mmHg 86%
    05:00 +11°C° 0 mm 1 mps 709 mmHg 80%
    06:00 +12°C° 0 mm 1 mps 710 mmHg 74%
    07:00 +14°C° 0 mm 1 mps 710 mmHg 67%
    08:00 +16°C° 0 mm 2 mps 710 mmHg 59%
    09:00 +18°C° 0 mm 3 mps 711 mmHg 51%
    10:00 +21°C° 0 mm 4 mps 711 mmHg 43%
    11:00 +22°C° 0 mm 4 mps 710 mmHg 41%
    12:00 +22°C° 0 mm 4 mps 710 mmHg 39%
    13:00 +23°C° 0 mm 4 mps 710 mmHg 37%
    14:00 +23°C° 0 mm 4 mps 709 mmHg 39%
    15:00 +23°C° 0 mm 4 mps 709 mmHg 40%
    16:00 +22°C° 0 mm 3 mps 708 mmHg 42%
    17:00 +20°C° 0 mm 3 mps 709 mmHg 51%
    18:00 +18°C° 0 mm 2 mps 709 mmHg 59%
    19:00 +15°C° 0 mm 1 mps 709 mmHg 68%
    20:00 +15°C° 0 mm 1 mps 709 mmHg 71%
    21:00 +14°C° 0 mm 1 mps 709 mmHg 75%
    22:00 +13°C° 0 mm 1 mps 709 mmHg 78%
    23:00 +13°C° 0 mm 1 mps 708 mmHg 81%

    25 October, Wednesday

    Time Temperature Precipitation Wind Pressure Humidity
    00:00 +13°C° 0 mm 1 mps 708 mmHg 83%
    01:00 +13°C° 0 mm 1 mps 708 mmHg 86%
    02:00 +13°C° 0 mm 1 mps 707 mmHg 87%
    03:00 +12°C° 0 mm 1 mps 707 mmHg 88%
    04:00 +12°C° 0 mm 1 mps 707 mmHg 89%
    05:00 +13°C° 0 mm 1 mps 707 mmHg 84%
    06:00 +14°C° 0 mm 1 mps 707 mmHg 79%
    07:00 +16°C° 0 mm 1 mps 708 mmHg 74%
    08:00 +17°C° 0.1 mm 2 mps 708 mmHg 68%
    09:00 +19°C° 0.1 mm 3 mps 708 mmHg 61%
    10:00 +20°C° 0.1 mm 4 mps 708 mmHg 55%
    11:00 +21°C° 0.2 mm 4 mps 707 mmHg 53%
    12:00 +22°C° 0.2 mm 3 mps 707 mmHg 50%
    13:00 +22°C° 0.2 mm 3 mps 706 mmHg 48%
    14:00 +21°C° 0.6 mm 2 mps 705 mmHg 58%
    15:00 +20°C° 0.6 mm 2 mps 705 mmHg 69%
    16:00 +19°C° 0.6 mm 2 mps 704 mmHg 79%
    17:00 +18°C° 0.2 mm 1 mps 704 mmHg 83%
    18:00 +16°C° 0.2 mm 1 mps 703 mmHg 87%
    19:00 +15°C° 0.2 mm 1 mps 703 mmHg 90%
    20:00 +14°C° 0.1 mm 1 mps 703 mmHg 92%
    21:00 +14°C° 0.1 mm 1 mps 703 mmHg 94%
    22:00 +13°C° 0.1 mm 2 mps 702 mmHg 95%
    23:00 +13°C° 0.1 mm 1 mps 702 mmHg 96%

    26 October, Thursday

    Time Temperature Precipitation Wind Pressure Humidity
    00:00 +12°C° 0.1 mm 1 mps 701 mmHg 96%
    01:00 +12°C° 0.1 mm 1 mps 701 mmHg 97%
    02:00 +12°C° 0 mm 1 mps 700 mmHg 97%
    03:00 +11°C° 0 mm 1 mps 700 mmHg 96%
    04:00 +11°C° 0 mm 1 mps 700 mmHg 96%
    05:00 +12°C° 0 mm 1 mps 700 mmHg 93%
    06:00 +13°C° 0 mm 1 mps 700 mmHg 89%
    07:00 +14°C° 0 mm 1 mps 701 mmHg 86%
    08:00 +17°C° 0.1 mm 2 mps 701 mmHg 76%
    09:00 +19°C° 0.1 mm 3 mps 702 mmHg 67%
    10:00 +21°C° 0.1 mm 4 mps 702 mmHg 58%
    11:00 +20°C° 1.3 mm 3 mps 702 mmHg 63%
    12:00 +20°C° 1.3 mm 3 mps 702 mmHg 69%
    13:00 +20°C° 1.3 mm 3 mps 702 mmHg 74%
    14:00 +19°C° 1.8 mm 2 mps 702 mmHg 75%
    15:00 +18°C° 1.8 mm 2 mps 703 mmHg 77%
    16:00 +18°C° 1.8 mm 2 mps 703 mmHg 78%
    17:00 +16°C° 0.3 mm 2 mps 703 mmHg 81%
    18:00 +14°C° 0.3 mm 2 mps 704 mmHg 83%
    19:00 +13°C° 0.3 mm 2 mps 704 mmHg 86%
    20:00 +12°C° 0 mm 2 mps 705 mmHg 86%
    21:00 +10°C° 0 mm 2 mps 705 mmHg 87%
    22:00 +9°C° 0 mm 2 mps 705 mmHg 88%
    23:00 +8°C° 0 mm 2 mps 706 mmHg 87%
    Show more